Location: Mentone
(34.5413°N, 85.5351°W)
Time: 02:08:57
(UTC-05:00)

Centaur AC-72 - Visible Passes

Search period start: 25 September 2016 00:00
Search period end: 05 October 2016 00:00
Orbit: 1096 x 35261 km, 19.6° (Epoch: 23 September)

Date Brightness Start Highest point End Pass type
(mag) Time Alt. Az. Time Alt. Az. Time Alt. Az.
26 Sep 5.6 05:29:27 13° WSW 05:47:51 62° SSE 15:08:18 10° SSE visible
27 Sep 5.3 02:46:10 35° SSE 02:47:29 35° SE 11:43:51 10° SE visible
30 Sep 5.6 05:14:43 18° WSW 05:31:29 61° SSE 14:52:02 10° SSE visible
01 Oct 5.4 02:31:27 35° SE 02:31:33 35° SE 11:24:51 10° SE visible
04 Oct 5.5 05:00:01 23° WSW 05:15:10 61° SSE 14:35:44 10° SSE visible
